Location: Heidgraben
(53.7081°N, 9.6576°E)
Time: 10:57:08
(UTC+00:00)

SL-16 R/B - Pass Details

Date: 05 July 2020
Orbit: 842 x 846 km, 71.0° (Epoch: 05 August)

Event Time Altitude Azimuth Distance (km) Brightness Sun altitude
Rises 20:52:01 0° 233° (SW) 3,397 5.3 -6.7°
Reaches altitude 10° 20:54:34 10° 239° (WSW) 2,466 4.7 -6.9°
Maximum altitude 21:00:00 46° 313° (NW) 1,129 3.5 -7.4°
Drops below altitude 10° 21:05:29 10° 26° (NNE) 2,480 5.1 -7.8°
Sets 21:08:03 0° 33° (NNE) 3,419 5.7 -8.0°
